| time (UTC) | temp F | wind direction | speed MPH | gust MPH | rain 1hr in | rain 24hr in | rain mn in | humidity % | barometer mb |
| 20260905104204 | 59 | 30 | 2.0 | 3.0 | 0.00 | 0.00 | 0.00 | 91 | 1011.5 |
| 20260905100704 | 59 | 14 | 2.0 | 3.0 | 0.00 | 0.00 | 0.00 | 90 | 1011.2 |
| 20260905100204 | 59 | 14 | 2.0 | 3.0 | 0.00 | 0.00 | 0.00 | 90 | 1011.2 |
| 20260905094704 | 59 | 44 | 1.0 | 3.0 | 0.00 | 0.00 | 0.00 | 90 | 1011.1 |
| 20260905094204 | 59 | 44 | 2.0 | 7.0 | 0.00 | 0.00 | 0.00 | 90 | 1011.2 |
| 20260905092704 | 59 | 19 | 2.0 | 3.0 | 0.00 | 0.00 | 0.00 | 90 | 1011.0 |
| 20260905092204 | 59 | 36 | 2.0 | 3.0 | 0.00 | 0.00 | 0.00 | 90 | 1011.0 |
| 20260905090204 | 59 | 344 | 1.0 | 3.0 | 0.00 | 0.00 | 0.00 | 90 | 1010.9 |
| 20260905084704 | 59 | 11 | 2.0 | 5.0 | 0.00 | 0.00 | 0.00 | 90 | 1010.9 |
| 20260905084204 | 59 | 31 | 2.0 | 3.0 | 0.00 | 0.00 | 0.00 | 90 | 1010.9 |
| 20260905082704 | 59 | 39 | 3.0 | 3.0 | 0.00 | 0.00 | 0.00 | 90 | 1010.8 |
| 20260905082204 | 59 | 47 | 1.0 | 6.0 | 0.00 | 0.00 | 0.00 | 90 | 1010.7 |
| 20260905080704 | 60 | 54 | 3.0 | 7.0 | 0.00 | 0.00 | 0.00 | 89 | 1010.6 |
| 20260905080204 | 60 | 47 | 2.0 | 5.0 | 0.00 | 0.00 | 0.00 | 89 | 1010.5 |
| 20260905074705 | 60 | 57 | 1.0 | 5.0 | 0.00 | 0.00 | 0.00 | 89 | 1010.5 |
| 20260905074206 | 60 | 51 | 3.0 | 8.0 | 0.00 | 0.00 | 0.00 | 89 | 1010.5 |
| 20260905072706 | 60 | 31 | 2.0 | 6.0 | 0.00 | 0.00 | 0.00 | 89 | 1010.5 |
| 20260905072205 | 60 | 82 | 3.0 | 6.0 | 0.00 | 0.00 | 0.00 | 89 | 1010.5 |
| 20260905070705 | 60 | 26 | 2.0 | 7.0 | 0.00 | 0.00 | 0.00 | 89 | 1010.4 |
| 20260905070205 | 60 | 43 | 3.0 | 7.0 | 0.00 | 0.00 | 0.00 | 89 | 1010.4 |
| 20260905064705 | 60 | 61 | 2.0 | 5.0 | 0.00 | 0.00 | 0.00 | 89 | 1010.4 |
| 20260905064205 | 60 | 21 | 3.0 | 7.0 | 0.00 | 0.00 | 0.00 | 89 | 1010.3 |
| 20260905060705 | 60 | 53 | 1.0 | 3.0 | 0.00 | 0.00 | 0.00 | 90 | 1010.2 |
| 20260905060205 | 60 | 54 | 3.0 | 7.0 | 0.00 | 0.00 | 0.00 | 90 | 1010.2 |
| 20260905054704 | 60 | 53 | 2.0 | 5.0 | 0.00 | 0.00 | 0.00 | 91 | 1010.2 |
| 20260905054205 | 60 | 51 | 2.0 | 7.0 | 0.00 | 0.00 | 0.00 | 91 | 1010.1 |
| 20260905052705 | 60 | 8 | 2.0 | 3.0 | 0.00 | 0.00 | 0.00 | 92 | 1010.1 |
| 20260905052205 | 60 | 46 | 2.0 | 5.0 | 0.00 | 0.00 | 0.00 | 92 | 1010.1 |
| 20260905050704 | 60 | 14 | 3.0 | 7.0 | 0.00 | 0.00 | 0.00 | 92 | 1010.0 |
| 20260905050205 | 60 | 19 | 2.0 | 5.0 | 0.00 | 0.00 | 0.00 | 92 | 1010.0 |
| 20260905044705 | 60 | 36 | 2.0 | 3.0 | 0.00 | 0.00 | 0.00 | 92 | 1010.1 |
| 20260905044205 | 60 | 20 | 2.0 | 7.0 | 0.00 | 0.00 | 0.00 | 93 | 1010.1 |
| 20260905042705 | 61 | 7 | 2.0 | 3.0 | 0.00 | 0.00 | 0.00 | 92 | 1010.0 |
| 20260905042205 | 61 | 20 | 3.0 | 5.0 | 0.00 | 0.00 | 0.00 | 92 | 1010.0 |
| 20260905040705 | 61 | 49 | 2.0 | 3.0 | 0.00 | 0.00 | 0.00 | 92 | 1010.0 |
| 20260905040205 | 61 | 50 | 2.0 | 3.0 | 0.00 | 0.00 | 0.00 | 92 | 1010.1 |
| 20260905034705 | 61 | 51 | 1.0 | 3.0 | 0.00 | 0.00 | 0.00 | 91 | 1010.0 |
| 20260905034205 | 62 | 51 | 1.0 | 3.0 | 0.00 | 0.00 | 0.00 | 92 | 1010.0 |
| 20260905032205 | 62 | 53 | 2.0 | 8.0 | 0.00 | 0.00 | 0.00 | 91 | 1010.0 |
| 20260905030705 | 63 | 356 | 3.0 | 7.0 | 0.00 | 0.00 | 0.00 | 91 | 1010.0 |
| 20260905030205 | 63 | 3 | 5.0 | 9.0 | 0.00 | 0.00 | 0.00 | 91 | 1010.1 |
| 20260905024705 | 63 | 31 | 2.0 | 3.0 | 0.00 | 0.00 | 0.00 | 90 | 1010.0 |
| 20260905024205 | 64 | 34 | 2.0 | 3.0 | 0.00 | 0.00 | 0.00 | 90 | 1010.0 |
| 20260905022705 | 64 | 30 | 2.0 | 3.0 | 0.00 | 0.00 | 0.00 | 89 | 1009.8 |
| 20260905022205 | 64 | 4 | 2.0 | 5.0 | 0.00 | 0.00 | 0.00 | 88 | 1009.8 |
| 20260905020705 | 64 | 19 | 3.0 | 5.0 | 0.00 | 0.00 | 0.00 | 87 | 1009.6 |
| 20260905020205 | 65 | 41 | 2.0 | 5.0 | 0.00 | 0.00 | 0.00 | 87 | 1009.6 |
| 20260905014705 | 65 | 13 | 2.0 | 5.0 | 0.00 | 0.00 | 0.00 | 87 | 1009.5 |
| 20260905014205 | 65 | 17 | 2.0 | 6.0 | 0.00 | 0.00 | 0.00 | 86 | 1009.5 |
| 20260905012705 | 65 | 18 | 2.0 | 3.0 | 0.00 | 0.00 | 0.00 | 86 | 1009.4 |
| 20260905012205 | 66 | 24 | 2.0 | 7.0 | 0.00 | 0.00 | 0.00 | 85 | 1009.4 |
| 20260905010705 | 66 | 28 | 2.0 | 3.0 | 0.00 | 0.00 | 0.00 | 84 | 1009.4 |
| 20260905010205 | 67 | 20 | 2.0 | 3.0 | 0.00 | 0.00 | 0.00 | 83 | 1009.4 |
| 20260905004705 | 67 | 349 | 2.0 | 6.0 | 0.00 | 0.00 | 0.00 | 82 | 1009.5 |
| 20260905004207 | 68 | 8 | 3.0 | 5.0 | 0.00 | 0.00 | 0.00 | 82 | 1009.5 |
| 20260905002705 | 68 | 349 | 2.0 | 5.0 | 0.00 | 0.00 | 0.00 | 83 | 1009.5 |
| 20260905002204 | 68 | 284 | 2.0 | 3.0 | 0.00 | 0.00 | 0.00 | 83 | 1009.4 |
| 20260905000704 | 69 | 280 | 0.0 | 0.0 | 0.00 | 0.00 | 0.00 | 82 | 1009.2 |
| 20260905000204 | 69 | 280 | 0.0 | 3.0 | 0.00 | 0.00 | 0.00 | 82 | 1009.3 |
| 20260904232705 | 69 | 267 | 3.0 | 5.0 | 0.00 | 0.01 | 0.00 | 80 | 1009.1 |
| 20260904232204 | 69 | 269 | 2.0 | 5.0 | 0.00 | 0.01 | 0.00 | 80 | 1009.1 |
| 20260904230705 | 70 | 269 | 2.0 | 6.0 | 0.00 | 0.01 | 0.00 | 79 | 1009.0 |
| 20260904230205 | 70 | 267 | 2.0 | 6.0 | 0.00 | 0.01 | 0.00 | 79 | 1009.0 |
| 20260904224705 | 70 | 271 | 3.0 | 8.0 | 0.00 | 0.01 | 0.00 | 78 | 1008.9 |
| 20260904224204 | 71 | 277 | 4.0 | 8.0 | 0.00 | 0.01 | 0.00 | 77 | 1009.0 |
| 20260904222705 | 71 | 282 | 5.0 | 9.0 | 0.00 | 0.01 | 0.00 | 77 | 1008.9 |
| 20260904222205 | 71 | 257 | 5.0 | 8.0 | 0.00 | 0.02 | 0.00 | 77 | 1008.9 |
| 20260904220205 | 71 | 271 | 3.0 | 5.0 | 0.00 | 0.03 | 0.00 | 77 | 1008.8 |
| 20260904214705 | 71 | 273 | 3.0 | 5.0 | 0.00 | 0.03 | 0.00 | 76 | 1008.7 |
| 20260904214204 | 72 | 276 | 2.0 | 10.0 | 0.00 | 0.03 | 0.00 | 75 | 1008.7 |
| 20260904212704 | 73 | 243 | 3.0 | 6.0 | 0.00 | 0.03 | 0.00 | 72 | 1008.8 |
| 20260904212204 | 74 | 272 | 3.0 | 9.0 | 0.00 | 0.03 | 0.00 | 71 | 1008.7 |
| 20260904210705 | 75 | 278 | 4.0 | 9.0 | 0.00 | 0.03 | 0.00 | 70 | 1008.8 |
| 20260904210204 | 75 | 277 | 5.0 | 9.0 | 0.00 | 0.03 | 0.00 | 70 | 1008.8 |
| 20260904204705 | 75 | 277 | 4.0 | 7.0 | 0.00 | 0.03 | 0.00 | 70 | 1008.9 |
| 20260904204204 | 75 | 287 | 4.0 | 8.0 | 0.00 | 0.03 | 0.00 | 69 | 1008.9 |
| 20260904202705 | 73 | 266 | 3.0 | 7.0 | 0.00 | 0.03 | 0.00 | 74 | 1009.0 |
| 20260904202204 | 73 | 286 | 3.0 | 10.0 | 0.00 | 0.03 | 0.00 | 73 | 1009.0 |
| 20260904200205 | 73 | 264 | 2.0 | 7.0 | 0.00 | 0.03 | 0.00 | 73 | 1009.0 |
| 20260904194704 | 73 | 271 | 3.0 | 7.0 | 0.00 | 0.03 | 0.00 | 72 | 1009.0 |
| 20260904194204 | 73 | 280 | 5.0 | 8.0 | 0.00 | 0.03 | 0.00 | 71 | 1009.0 |
| 20260904192705 | 73 | 318 | 4.0 | 7.0 | 0.00 | 0.03 | 0.00 | 70 | 1009.0 |
| 20260904192205 | 73 | 295 | 3.0 | 6.0 | 0.00 | 0.03 | 0.00 | 69 | 1009.0 |
| 20260904190705 | 74 | 280 | 3.0 | 5.0 | 0.00 | 0.03 | 0.00 | 68 | 1009.0 |
| 20260904190205 | 74 | 310 | 3.0 | 8.0 | 0.00 | 0.03 | 0.00 | 70 | 1009.0 |
| 20260904184705 | 74 | 316 | 2.0 | 3.0 | 0.00 | 0.03 | 0.00 | 70 | 1009.1 |
| 20260904182704 | 73 | 274 | 3.0 | 7.0 | 0.00 | 0.03 | 0.00 | 71 | 1009.3 |
| 20260904182204 | 73 | 289 | 4.0 | 8.0 | 0.00 | 0.03 | 0.00 | 70 | 1009.3 |
| 20260904180704 | 73 | 307 | 4.0 | 9.0 | 0.00 | 0.03 | 0.00 | 71 | 1009.2 |
| 20260904174705 | 73 | 288 | 3.0 | 6.0 | 0.00 | 0.03 | 0.00 | 72 | 1009.2 |
| 20260904174205 | 73 | 307 | 3.0 | 8.0 | 0.00 | 0.03 | 0.00 | 72 | 1009.1 |
| 20260904172704 | 73 | 281 | 5.0 | 8.0 | 0.00 | 0.03 | 0.00 | 71 | 1009.2 |
| 20260904164704 | 73 | 282 | 4.0 | 9.0 | 0.00 | 0.03 | 0.00 | 70 | 1009.1 |
| 20260904164205 | 73 | 264 | 4.0 | 12.0 | 0.00 | 0.03 | 0.00 | 71 | 1009.2 |
| 20260904162204 | 73 | 268 | 3.0 | 8.0 | 0.00 | 0.03 | 0.00 | 75 | 1009.3 |
| 20260904160704 | 72 | 277 | 5.0 | 9.0 | 0.00 | 0.03 | 0.00 | 74 | 1009.4 |
| 20260904160205 | 73 | 275 | 5.0 | 8.0 | 0.00 | 0.03 | 0.00 | 74 | 1009.5 |
| 20260904154704 | 74 | 336 | 2.0 | 5.0 | 0.00 | 0.03 | 0.00 | 73 | 1009.5 |
| 20260904154204 | 73 | 286 | 3.0 | 6.0 | 0.00 | 0.03 | 0.00 | 74 | 1009.6 |
| 20260904152704 | 72 | 269 | 2.0 | 5.0 | 0.00 | 0.03 | 0.00 | 76 | 1009.6 |
| 20260904150204 | 71 | 286 | 3.0 | 6.0 | 0.00 | 0.03 | 0.00 | 80 | 1009.7 |
| 20260904144704 | 69 | 282 | 2.0 | 3.0 | 0.00 | 0.03 | 0.00 | 84 | 1009.7 |
| 20260904144204 | 68 | 276 | 3.0 | 6.0 | 0.00 | 0.03 | 0.00 | 85 | 1009.8 |
| 20260904142705 | 68 | 282 | 3.0 | 6.0 | 0.00 | 0.03 | 0.00 | 86 | 1009.9 |
| 20260904142204 | 67 | 295 | 3.0 | 7.0 | 0.00 | 0.03 | 0.00 | 86 | 1009.9 |
| 20260904140704 | 67 | 291 | 3.0 | 6.0 | 0.00 | 0.03 | 0.00 | 87 | 1009.9 |
| 20260904140204 | 67 | 273 | 3.0 | 6.0 | 0.00 | 0.03 | 0.00 | 87 | 1009.9 |
| 20260904132704 | 65 | 266 | 3.0 | 3.0 | 0.00 | 0.03 | 0.00 | 95 | 1009.7 |
| 20260904132204 | 64 | 277 | 1.0 | 5.0 | 0.00 | 0.03 | 0.00 | 96 | 1009.7 |
| 20260904130704 | 64 | 288 | 2.0 | 3.0 | 0.00 | 0.03 | 0.00 | 97 | 1009.8 |
| 20260904130204 | 63 | 290 | 1.0 | 3.0 | 0.00 | 0.03 | 0.00 | 97 | 1009.8 |
| 20260904124704 | 63 | 305 | 3.0 | 3.0 | 0.00 | 0.03 | 0.00 | 97 | 1009.7 |
| 20260904124204 | 63 | 59 | 2.0 | 3.0 | 0.00 | 0.03 | 0.00 | 97 | 1009.7 |
| 20260904122704 | 62 | 66 | 1.0 | 2.0 | 0.00 | 0.03 | 0.00 | 97 | 1009.7 |
| 20260904120704 | 61 | 67 | 0.0 | 0.0 | 0.00 | 0.03 | 0.00 | 97 | 1009.7 |
| 20260904120204 | 61 | 67 | 0.0 | 2.0 | 0.00 | 0.03 | 0.00 | 96 | 1009.7 |
| 20260904114704 | 61 | 67 | 0.0 | 0.0 | 0.00 | 0.03 | 0.00 | 97 | 1009.7 |
| 20260904114204 | 60 | 67 | 0.0 | 2.0 | 0.00 | 0.03 | 0.00 | 96 | 1009.6 |
| 20260904112704 | 60 | 67 | 1.0 | 1.0 | 0.00 | 0.03 | 0.00 | 96 | 1009.5 |
| 20260904110704 | 59 | 67 | 0.0 | 2.0 | 0.00 | 0.03 | 0.00 | 96 | 1009.2 |
| 20260904110204 | 59 | 66 | 1.0 | 2.0 | 0.00 | 0.03 | 0.00 | 96 | 1009.2 |
| 20260904104704 | 59 | 66 | 0.0 | 0.0 | 0.00 | 0.03 | 0.00 | 96 | 1009.2 |